Location: Zagreb
(45.8000°N, 16.0000°E)
Time: 08:45:22
(UTC+01:00)

N. Korean satellite - Pass Details

Date: 12 December 2021
Orbit: 447 x 491 km, 97.3° (Epoch: 23 January)

Event Time Altitude Azimuth Distance (km) Brightness Sun altitude
Rises 05:07:56 0° 14° (NNE) 2,460 10.2 -23.4°
Enters shadow 05:09:27 - 16° (NNE) 1,805 9.5 -23.1°
Exits shadow 05:14:34 36° 175° (S) 728 7.5 -22.3°
Drops below altitude 10° 05:16:43 10° 186° (S) 1,579 9.2 -21.9°
Sets 05:18:45 0° 189° (S) 2,451 10.2 -21.6°
